Location: Habighorst
(52.7089°N, 10.2278°E)
Time: 22:39:21
(UTC+00:00)

ATLAS 2AS CENTAUR R/B - Visible Passes

Search period start: 18 April 2026 00:00
Search period end: 28 April 2026 00:00
Orbit: 1052 x 1159 km, 63.7° (Epoch: 18 April)

Date Brightness Start Highest point End Pass type
(mag) Time Alt. Az. Time Alt. Az. Time Alt. Az.
18 Apr 2.9 01:18:47 30° WSW 01:22:24 65° NW 01:29:11 10° NE visible
18 Apr 3.9 03:08:12 10° WNW 03:14:26 35° NNW 03:20:36 10° NE visible
18 Apr 3.7 22:47:23 29° ESE 22:47:23 29° ESE 22:52:40 10° ENE visible
19 Apr 2.6 00:34:46 44° SW 00:37:14 85° NW 00:44:06 10° NE visible
19 Apr 3.7 02:22:32 10° W 02:28:57 39° NNW 02:35:17 10° NE visible
19 Apr 4.2 22:03:19 19° E 22:03:19 19° E 22:06:57 10° ENE visible
19 Apr 2.6 23:50:42 56° SSW 23:52:11 73° SE 23:58:59 10° NE visible
20 Apr 3.5 01:38:04 15° W 01:43:31 46° NNW 01:50:03 10° NE visible
20 Apr 4.1 03:29:50 10° WNW 03:35:56 33° N 03:41:59 10° ENE visible
20 Apr 4.6 21:19:12 11° E 21:19:12 11° E 21:20:16 10° E visible
20 Apr 2.8 23:06:34 50° SE 23:07:15 52° SE 23:13:50 10° NE visible
21 Apr 3.1 00:53:57 24° WSW 00:58:11 57° NNW 01:04:54 10° NE visible
21 Apr 4.1 02:44:13 10° WNW 02:50:23 34° N 02:56:29 10° ENE visible
21 Apr 3.3 22:22:23 36° ESE 22:22:26 36° ESE 22:28:33 10° NE visible
22 Apr 2.8 00:09:45 34° WSW 00:12:58 73° NW 00:19:48 10° NE visible
22 Apr 3.9 01:58:34 10° W 02:04:52 37° NNW 02:11:06 10° NE visible
22 Apr 3.8 21:38:07 24° ESE 21:38:07 24° ESE 21:43:03 10° ENE visible
22 Apr 2.6 23:25:29 45° SW 23:27:51 85° SE 23:34:42 10° NE visible
23 Apr 3.7 01:12:54 10° W 01:19:24 42° NNW 01:25:49 10° NE visible
23 Apr 4.2 03:05:47 10° WNW 03:11:54 33° N 03:17:58 10° ENE visible
23 Apr 4.2 20:53:46 16° E 20:53:46 16° E 20:57:04 10° ENE visible
23 Apr 2.7 22:41:07 48° S 22:42:51 63° SE 22:49:35 10° NE visible
24 Apr 3.4 00:28:27 15° W 00:34:00 50° NNW 00:40:38 10° NE visible
24 Apr 4.2 02:20:14 10° WNW 02:26:20 33° N 02:32:24 10° ENE visible
24 Apr 3.0 21:56:37 40° SSE 21:57:58 44° ESE 22:04:23 10° NE visible
24 Apr 3.0 23:43:57 21° WSW 23:48:43 63° NW 23:55:30 10° NE visible
25 Apr 4.1 01:34:35 10° WNW 01:40:48 35° N 01:46:57 10° NE visible
25 Apr 3.4 21:11:56 29° SE 21:13:12 31° ESE 21:19:02 10° ENE visible
25 Apr 2.7 22:59:15 26° SW 23:03:33 82° NW 23:10:24 10° NE visible
26 Apr 3.9 00:48:55 10° W 00:55:18 38° NNW 01:01:37 10° NE visible
26 Apr 4.2 02:41:41 10° NW 02:47:51 34° N 02:53:57 10° ENE visible
26 Apr 3.8 20:27:00 19° SE 20:28:34 21° ESE 20:33:22 10° ENE visible
26 Apr 2.6 22:14:18 26° SSW 22:18:29 75° SE 22:25:18 10° NE visible
27 Apr 3.6 00:03:16 10° W 00:09:52 45° NNW 00:16:22 10° NE visible
27 Apr 4.3 01:56:12 10° WNW 02:02:18 33° N 02:08:21 10° ENE visible
27 Apr 4.3 19:41:37 11° SE 19:44:04 13° ESE 19:46:53 10° E visible
27 Apr 2.8 21:28:52 21° SSW 21:33:32 54° SE 21:40:09 10° NE visible
27 Apr 3.3 23:17:43 10° WSW 23:24:31 55° NNW 23:31:13 10° NE visible
